ACA498 CYHZ-CYUL

Flight info

Callsign ACA498
Flight time N/A
Altitude 38000
Route KELNO Q806 MLT DCT ODBOS OMBRE2
Aircraft A20N/M-SDE2E3FGHIRWXY/LB1

Departure

Time 2025-12-30 00:40
Airport Halifax / Stanfield International Airport (CYHZ)

Arrival

Time N/A
Airport Montreal / Pierre Elliott Trudeau International Airport (CYUL)
Time Latitude Longitude Altitude Speed Heading
2025-12-30 00:22 44.88683 -63.51371 455 ft 0 kts 264°
2025-12-30 00:31 44.88685 -63.51347 471 ft 2 kts 265°
2025-12-30 00:31 44.88686 -63.51301 455 ft 2 kts 271°
2025-12-30 00:32 44.88685 -63.51279 454 ft 2 kts 284°
2025-12-30 00:32 44.88667 -63.51253 454 ft 1 kts 346°
2025-12-30 00:33 44.88666 -63.51252 453 ft 0 kts 347°
2025-12-30 00:34 44.88667 -63.51253 454 ft 3 kts 347°
2025-12-30 00:34 44.88852 -63.51299 455 ft 13 kts 350°
2025-12-30 00:35 44.88927 -63.51315 455 ft 9 kts 351°
2025-12-30 00:35 44.89042 -63.51423 452 ft 11 kts 305°
2025-12-30 00:36 44.89117 -63.51570 451 ft 8 kts 305°
2025-12-30 00:36 44.89178 -63.51697 449 ft 9 kts 304°
2025-12-30 00:37 44.89256 -63.51806 449 ft 7 kts 338°
2025-12-30 00:37 44.89348 -63.51687 448 ft 5 kts 110°
2025-12-30 00:38 44.89345 -63.51682 448 ft 0 kts 128°
2025-12-30 00:38 44.89343 -63.51680 448 ft 5 kts 129°
2025-12-30 00:39 44.89177 -63.51352 447 ft 77 kts 125°
2025-12-30 00:39 44.88133 -63.49249 939 ft 159 kts 125°
2025-12-30 00:40 44.86771 -63.46540 2426 ft 178 kts 135°
2025-12-30 00:40 44.84961 -63.43338 3595 ft 232 kts 135°
2025-12-30 00:41 44.82168 -63.41323 5382 ft 237 kts 188°
2025-12-30 00:41 44.79212 -63.46148 8797 ft 244 kts 252°
2025-12-30 00:42 44.78567 -63.50937 10543 ft 262 kts 254°
2025-12-30 00:42 44.78183 -63.53551 11031 ft 282 kts 254°
2025-12-30 00:43 44.77288 -63.59107 12750 ft 297 kts 254°
2025-12-30 00:43 44.76265 -63.64829 14527 ft 305 kts 253°
2025-12-30 00:44 44.75183 -63.70679 16282 ft 312 kts 253°
2025-12-30 00:44 44.74081 -63.76658 18033 ft 319 kts 253°
2025-12-30 00:45 44.72985 -63.82718 19475 ft 325 kts 253°
2025-12-30 00:45 44.71347 -63.92059 21772 ft 330 kts 253°
2025-12-30 00:46 44.70811 -63.95209 22511 ft 333 kts 253°
2025-12-30 00:46 44.69915 -64.00512 23575 ft 337 kts 253°
2025-12-30 00:47 44.68815 -64.06974 24721 ft 342 kts 253°
2025-12-30 00:49 44.64272 -64.33545 28954 ft 357 kts 253°
2025-12-30 00:50 44.60341 -64.57318 32354 ft 351 kts 254°
2025-12-30 00:52 44.56070 -64.83564 35368 ft 345 kts 254°
2025-12-30 00:55 44.51217 -65.13036 37433 ft 346 kts 254°
2025-12-30 00:56 44.47542 -65.35884 37406 ft 343 kts 254°
2025-12-30 00:59 44.52877 -65.64792 37359 ft 405 kts 306°
2025-12-30 01:00 44.68363 -65.82556 37307 ft 411 kts 308°
2025-12-30 01:03 44.90376 -66.08682 37273 ft 414 kts 307°
2025-12-30 01:05 45.05747 -66.27076 37298 ft 414 kts 307°
2025-12-30 01:07 45.24063 -66.51424 37324 ft 388 kts 286°
2025-12-30 01:09 45.29971 -66.76096 37275 ft 380 kts 276°
2025-12-30 01:11 45.37156 -67.08585 37279 ft 390 kts 276°
2025-12-30 01:13 45.42801 -67.34370 37315 ft 393 kts 275°
2025-12-30 01:15 45.49036 -67.64622 37276 ft 391 kts 269°
2025-12-30 01:17 45.52538 -67.95246 37257 ft 393 kts 268°
2025-12-30 01:19 45.55944 -68.26171 37247 ft 396 kts 268°
2025-12-30 01:21 45.59485 -68.57292 37233 ft 405 kts 272°
2025-12-30 01:23 45.64434 -68.88784 37235 ft 407 kts 272°
2025-12-30 01:25 45.69220 -69.20458 37269 ft 408 kts 273°
2025-12-30 01:27 45.73956 -69.52421 37205 ft 411 kts 273°
2025-12-30 01:29 45.78600 -69.84427 37216 ft 411 kts 273°
2025-12-30 01:31 45.83712 -70.20469 37229 ft 412 kts 272°
2025-12-30 01:33 45.87639 -70.48746 37247 ft 415 kts 272°
2025-12-30 01:35 45.91819 -70.81219 37260 ft 405 kts 262°
2025-12-30 01:36 45.83554 -71.05075 37267 ft 384 kts 234°
2025-12-30 01:39 45.71185 -71.33107 37280 ft 386 kts 234°
2025-12-30 01:40 45.61097 -71.55772 37276 ft 385 kts 234°
2025-12-30 01:43 45.46664 -71.87884 37275 ft 386 kts 235°
2025-12-30 01:44 45.37922 -72.07161 37297 ft 387 kts 234°
2025-12-30 01:47 45.24855 -72.35736 36549 ft 366 kts 234°
2025-12-30 01:48 45.15131 -72.56805 32966 ft 366 kts 235°
2025-12-30 01:51 45.02521 -72.83906 28650 ft 368 kts 236°